Change the Weather History Date:

Wednesday, November 28, 2012

  Actual Average Record
Temperature  
Mean Temperature 62 °F -  
Max Temperature 66 °F 71 °F 84 °F (1997)
Min Temperature 57 °F 51 °F 35 °F (2013)
Degree Days  
Heating Degree Days 4    
Growing Degree Days 12 (Base 50)    
Moisture  
Dew Point 49 °F    
Average Humidity 65    
Maximum Humidity 77    
Minimum Humidity 49    
Precipitation  
Precipitation 0.00 in - - ()
Sea Level Pressure  
Sea Level Pressure 30.31 in    
Wind  
Wind Speed 3 mph ()    
Max Wind Speed 12 mph    
Max Gust Speed -    
Visibility 10.1 miles    
Events      
Averages and records for this station are not official NWS values.
T = Trace of Precipitation, MM = Missing Value Source: Averaged Metar Reports

Daily Weather History Graph

Daily Weather History Graph

Search for Another Location

Airport or City:

Trip Planner

Search our weather history database for the weather conditions in past years. The results will help you decide how hot, cold, wet, or windy it might be!

Date:

Astronomy

Nov. 28, 2012 Rise Set
Actual Time 7:08 AM CST 5:48 PM CST
Civil Twilight 6:43 AM CST 6:13 PM CST
Nautical Twilight 6:15 AM CST 6:41 PM CST
Astronomical Twilight 5:47 AM CST 7:09 PM CST
Moon 6:05 PM CST (11/28) 7:07 AM CST (11/28)
Length of Visible Light 11h 30m
Length of Day
10h 40m
Full, 100% of the Moon is Illuminated
Nov 28
Full
Dec 6
Last Quarter
Dec 13
New
Dec 19
First Quarter
Dec 28
Full

Hourly Weather History & Observations

Time (CST) Temp. Dew Point Humidity Pressure Visibility Wind Dir Wind Speed Gust Speed Precip Events Conditions
12:46 AM 59.0 °F 50.0 °F 72% 30.32 in 10.0 mi Calm Calm - N/A   Overcast
1:43 AM 59.0 °F 51.8 °F 77% 30.32 in 10.0 mi Calm Calm - N/A   Overcast
2:46 AM 59.0 °F 50.0 °F 72% 30.33 in 10.0 mi Calm Calm - N/A   Overcast
3:42 AM 59.0 °F 50.0 °F 72% 30.30 in 10.0 mi Calm Calm - N/A   Overcast
5:11 AM 59.0 °F 50.0 °F 72% 30.32 in 10.0 mi Calm Calm - N/A   Overcast
5:42 AM 59.0 °F 50.0 °F 72% 30.35 in 15.0 mi Calm Calm - N/A   Overcast
6:46 AM 57.2 °F 48.2 °F 72% 30.36 in 10.0 mi Calm Calm - N/A   Overcast
7:49 AM 57.2 °F 46.4 °F 67% 30.37 in 10.0 mi Calm Calm - N/A   Overcast
8:46 AM 59.0 °F 46.4 °F 63% 30.40 in 10.0 mi SE 4.6 mph - N/A   Overcast
9:45 AM 60.8 °F 46.4 °F 59% 30.40 in 10.0 mi SE 4.6 mph - N/A   Overcast
10:48 AM 64.4 °F 44.6 °F 49% 30.39 in 10.0 mi SE 4.6 mph - N/A   Scattered Clouds
11:45 AM 66.2 °F 46.4 °F 49% 30.38 in - SE 11.5 mph - N/A   Scattered Clouds
12:42 PM 66.2 °F 48.2 °F 52% 30.33 in 10.0 mi SSE 10.4 mph - N/A   Mostly Cloudy
1:40 PM 66.2 °F 48.2 °F 52% 30.29 in 10.0 mi South 8.1 mph - N/A   Mostly Cloudy
2:41 PM 66.2 °F 48.2 °F 52% 30.32 in 8.0 mi SSE 6.9 mph - N/A   Mostly Cloudy
3:42 PM 64.4 °F 48.2 °F 56% 30.25 in 8.0 mi South 6.9 mph - N/A   Mostly Cloudy
4:44 PM 64.4 °F 48.2 °F 56% 30.25 in 10.0 mi South 6.9 mph - N/A   Scattered Clouds
5:45 PM 62.6 °F 50.0 °F 63% 30.25 in 10.0 mi South 5.8 mph - N/A   Mostly Cloudy
6:48 PM 60.8 °F 51.8 °F 72% 30.25 in 12.0 mi SSE 4.6 mph - N/A   Mostly Cloudy
7:46 PM 62.6 °F 51.8 °F 68% 30.25 in 10.0 mi ENE 4.6 mph - N/A   Mostly Cloudy
8:47 PM 60.8 °F 53.6 °F 77% 30.25 in 10.0 mi SE 4.6 mph - N/A   Mostly Cloudy
9:41 PM 60.8 °F 51.8 °F 72% 30.27 in 10.0 mi East 6.9 mph - N/A   Mostly Cloudy
10:40 PM 60.8 °F 51.8 °F 72% 30.26 in 10.0 mi Calm Calm - N/A   Overcast
11:45 PM 60.8 °F 51.8 °F 72% 30.28 in 10.0 mi East 5.8 mph - N/A   Overcast